Weather Roundup
Issued by NWS

Home | Current Version | Previous Version | Graphics & Text | Print | Product List | Glossary Off
Versions: 1 2 3 4 5 6 7 8 9 10 11 12 13 14 15 16 17 18 19 20 21 22 23 24 25 26 27 28 29 30 31 32 33 34 35 36 37 38 39 40 41 42 43 44 45 46 47 48 49 50

000
NZUS93 KARX 260459
HRRWXR

CURRENT HOURLY OBSERVATIONS ACROSS
MUCH OF THE UPPER MISSISSIPPI VALLEY
NATIONAL WEATHER SERVICE LA CROSSE WI
1200 AM CDT TUE MAY 26 2015


...SOUTHEAST MINNESOTA...


CITY           SKY/WX    TMP DP  RH WIND       PRES   REMARKS
ROCHESTER      MOCLDY    64  59  83 S10       29.81R
ROCHESTER/MAYO FAIR      67  59  73 SW5       29.80S
WINONA         PTCLDY    70  61  73 SW5       29.79S
AUSTIN         CLOUDY    64  59  82 S5        29.80S
ALBERT LEA     CLOUDY    66  61  82 CALM      29.80S
DODGE CENTER   CLOUDY    63  59  88 S3        29.80S
PRESTON        CLOUDY    66  62  86 S9        29.82R
OWATONNA       CLOUDY    59  57  94 CALM      29.80S
FARIBAULT      MOCLDY    61  59  94 CALM      29.80R FOG
$$

...ELSEWHERE IN MINNESOTA...


CITY           SKY/WX    TMP DP  RH WIND       PRES   REMARKS
MINNEAPOLIS    MOCLDY    64  58  80 SW6       29.78S
INTNL FALLS    CLOUDY    51  50  96 NW3       29.82R
DULUTH         DRIZZLE   52  50  93 NE3       29.79R
RED WING       PTCLDY    59  57  94 CALM      29.77S
REDWOOD FALLS  PTCLDY    58  55  90 W8        29.81R
MANKATO        MOCLDY    63  57  82 CALM      29.80R
WORTHINGTON    MOCLDY    59  54  82 N7        29.83R
FAIRMONT       CLOUDY    63  55  77 CALM      29.82R
$$

...SOUTHWEST WISCONSIN...


CITY           SKY/WX    TMP DP  RH WIND       PRES   REMARKS
LA CROSSE      MOCLDY    71  62  73 S12       29.80R
PRAIRIE DU CHI PTCLDY    71  61  70 S5        29.83F
BOSCOBEL       PTCLDY    71  62  73 VRB3      29.85F
LONE ROCK      NOT AVBL
PLATTEVILLE    PTCLDY    67  62  83 S6        29.88F
FORT MC COY    MOCLDY    68  60  76 S8        29.83R
VIROQUA        FAIR      68  63  84 S9        29.86R
WIS DELLS      PTCLDY    68  59  74 S9        29.87S
$$

...ELSEWHERE IN WISCONSIN...


CITY           SKY/WX    TMP DP  RH WIND       PRES   REMARKS
MILWAUKEE      FAIR      68  59  73 SW7       29.92S
MADISON        PTCLDY    67  59  75 S6        29.88F
GREEN BAY      PTCLDY    64  61  90 S7        29.85S
EAU CLAIRE     CLEAR     61  60  97 CALM      29.78S FOG
BLACK RVR FLS  MOCLDY    58  58 100 CALM      29.81R FOG
MEDFORD        CLOUDY    59  59  99 NW6       29.83R THUNDER
WAUSAU         MOCLDY    62  60  93 S6        29.82S
WIS RAPIDS     PTCLDY    63  60  90 S5        29.84F
MARSHFIELD     MOCLDY    61  59  93 S5        29.83S
RICE LAKE      PTCLDY    60  57  90 SE5       29.79S
$$

...NORTHEAST IOWA...


CITY           SKY/WX    TMP DP  RH WIND       PRES   REMARKS
DECORAH          N/A     68  64  88 S8        29.82F
MASON CITY     CLOUDY    67  57  70 S12       29.83R
CHARLES CITY     N/A     63  59  88 S13G24    29.86R
OELWEIN        PTCLDY    68  64  88 S12       29.84F
$$

...ELSEWHERE IN IOWA...


CITY           SKY/WX    TMP DP  RH WIND       PRES   REMARKS
DES MOINES     CLOUDY    65  58  78 CALM      29.81F
IOWA CITY      CLEAR     67  64  90 SE6       29.87F
FORT DODGE     CLOUDY    61  54  77 S6        29.84F
$$

...NORTHERN ILLINOIS...


CITY           SKY/WX    TMP DP  RH WIND       PRES   REMARKS
CHICAGO-OHARE  PTCLDY    68  58  70 S9        29.94F
CHICAGO-MIDWAY CLEAR     74  63  68 S13       29.95F
MOLINE         PTCLDY    68  61  78 SE7       29.88F
ROCKFORD       PTCLDY    72  57  59 S6        29.92F
PEORIA         MOCLDY    74  66  76 S13G23    29.93F
$$

NOTE: "FAIR" INDICATES FEW OR NO CLOUDS BELOW 12,000 FEET WITH NO
SIGNIFICANT WEATHER AND/OR OBSTRUCTIONS TO VISIBILITY. WIND
SPEEDS ARE IN MILES-PER-HOUR.



USA.gov is the U.S. government's official web portal to all federal, state and local government web resources and services.